Location: Arpaise
(41.0333°N, 14.7333°E)
Time: 01:29:44
(UTC+00:00)

Nimbus 7 Rocket - Pass Details

Date: 05 July 2020
Orbit: 922 x 965 km, 99.4° (Epoch: 11 August)

Event Time Altitude Azimuth Distance (km) Brightness Sun altitude
Rises 22:13:01 0° 15° (NNE) 3,610 8.5 -25.1°
Reaches altitude 10° 22:15:28 10° 16° (NNE) 2,655 7.6 -25.2°
Maximum altitude 22:21:25 82° 105° (ESE) 942 4.3 -25.5°
Enters shadow 22:22:23 64° 179° (S) 1,025 4.3 -25.5°
